DW1006 Weather Reports


time (UTC)temp
C
wind
direction
speed
KPH
gust
KPH
rain 1hr
cm
rain 24hr
cm
rain mn
cm
humidity
%
barometer
mb
20260507054932 8 286 1.6 6.4 0.00 0.36 0.00 97 1014.0
20260507054427 8 271 1.6 6.4 0.00 0.36 0.00 97 1013.8
20260507053920 8 273 0.0 6.4 0.00 0.36 0.00 97 1013.9
20260507053413 8 306 1.6 8.0 0.00 0.36 0.00 97 1013.8
20260507051856 8 247 1.6 9.7 0.00 0.38 0.00 97 1013.7
20260507051350 8 298 1.6 6.4 0.00 0.38 0.00 97 1013.6
20260507050844 8 325 3.2 8.0 0.00 0.41 0.00 97 1013.6
20260507050341 8 294 3.2 9.7 0.00 0.41 0.00 97 1013.5
20260507045833 8 309 3.2 9.7 0.00 0.41 0.00 97 1013.5
20260507045327 8 289 3.2 9.7 0.00 0.41 0.00 97 1013.4
20260507044821 8 317 1.6 9.7 0.00 0.43 0.00 97 1013.4
20260507044316 8 298 1.6 6.4 0.00 0.43 0.00 97 1013.3
20260507043303 8 313 3.2 8.0 0.00 0.43 0.00 97 1013.2
20260507042250 8 282 1.6 6.4 0.00 0.46 0.00 97 1013.1
20260507041744 8 277 1.6 6.4 0.00 0.46 0.00 97 1013.1
20260507041238 8 311 1.6 6.4 0.00 0.46 0.00 97 1013.1
20260507040225 8 292 3.2 8.0 0.00 0.48 0.00 97 1013.0
20260507035720 8 313 3.2 8.0 0.00 0.48 0.00 97 1012.9
20260507035213 8 306 1.6 6.4 0.00 0.48 0.00 97 1012.8
20260507034708 8 294 1.6 6.4 0.00 0.51 0.00 97 1012.8
20260507034201 8 318 3.2 6.4 0.00 0.51 0.00 97 1012.9
20260507033655 8 339 1.6 6.4 0.00 0.51 0.00 97 1012.8
20260507033150 8 295 0.0 3.2 0.00 0.51 0.00 97 1012.8
20260507032644 8 283 0.0 6.4 0.00 0.51 0.00 97 1012.8
20260507032137 8 283 0.0 6.4 0.00 0.51 0.00 97 1012.8
20260507031631 8 239 0.0 4.8 0.00 0.51 0.00 97 1012.8
20260507031125 8 325 0.0 3.2 0.00 0.53 0.00 97 1012.6
20260507030621 8 325 0.0 3.2 0.00 0.53 0.00 97 1012.7
20260507030116 8 325 0.0 3.2 0.00 0.53 0.00 97 1012.7
20260507025608 8 325 0.0 1.6 0.00 0.56 0.00 97 1012.6
20260507024555 8 325 0.0 3.2 0.00 0.56 0.00 97 1012.6
20260507024051 8 325 0.0 1.6 0.00 0.56 0.00 97 1012.6
20260507023545 8 325 0.0 1.6 0.00 0.58 0.00 97 1012.6
20260507022531 8 325 0.0 3.2 0.00 0.58 0.00 97 1012.5
20260507021520 8 325 0.0 1.6 0.00 0.61 0.00 96 1012.4
20260507021013 8 325 0.0 1.6 0.00 0.61 0.00 96 1012.5
20260507020509 8 325 0.0 4.8 0.00 0.61 0.00 96 1012.5
20260507020001 8 325 0.0 4.8 0.00 0.61 0.00 96 1012.4
20260507015455 8 325 0.0 3.2 0.00 0.64 0.00 96 1012.4
20260507014443 8 325 0.0 1.6 0.00 0.66 0.00 96 1012.4
20260507013937 8 325 0.0 3.2 0.00 0.66 0.00 96 1012.3
20260507013431 8 325 0.0 1.6 0.00 0.69 0.00 96 1012.3
20260507012926 8 325 1.6 4.8 0.00 0.69 0.00 96 1012.2
20260507012420 8 325 1.6 4.8 0.00 0.71 0.00 96 1012.2
20260507011414 8 325 1.6 6.4 0.00 0.71 0.00 96 1012.1
20260507010417 8 321 1.6 4.8 0.00 0.76 0.00 96 1012.1
20260507005914 8 310 1.6 4.8 0.00 0.76 0.00 96 1012.1
20260507005415 8 310 1.6 8.0 0.00 0.79 0.00 96 1012.1
20260507004915 8 312 3.2 8.0 0.00 0.79 0.00 96 1012.1
20260507004415 8 314 1.6 8.0 0.00 0.79 0.00 97 1012.2
20260507003915 8 322 1.6 8.0 0.00 0.81 0.00 97 1012.1
20260507002914 8 310 1.6 6.4 0.00 0.84 0.00 97 1012.0
20260507002414 8 306 1.6 4.8 0.00 0.84 0.00 97 1012.1
20260507001914 8 306 1.6 4.8 0.00 0.84 0.00 97 1012.0
20260507001416 8 306 1.6 4.8 0.00 0.86 0.00 97 1012.0
20260507000914 8 306 0.0 4.8 0.00 0.86 0.00 97 1012.0
20260507000414 8 308 1.6 4.8 0.00 0.89 0.00 97 1012.0
20260506235915 8 301 0.0 6.4 0.00 0.89 0.00 97 1012.0
20260506235409 8 307 0.0 6.4 0.00 0.89 0.00 97 1012.0
20260506234908 8 275 0.0 3.2 0.00 0.89 0.00 97 1012.0
20260506234408 8 276 0.0 3.2 0.00 0.89 0.00 97 1012.0
20260506233908 8 317 0.0 1.6 0.00 0.89 0.00 97 1012.1
20260506233409 8 317 0.0 4.8 0.00 0.89 0.00 97 1012.0
20260506232907 8 317 1.6 6.4 0.00 0.89 0.00 97 1011.9
20260506232408 8 326 1.6 6.4 0.00 0.89 0.00 97 1012.0
20260506231908 8 271 0.0 4.8 0.00 0.89 0.00 97 1012.0
20260506231417 8 309 0.0 3.2 0.00 0.91 0.00 97 1012.0
20260506230908 8 309 0.0 3.2 0.00 0.91 0.00 97 1011.9
20260506230408 8 293 1.6 4.8 0.00 0.91 0.00 97 1011.8
20260506225908 8 315 1.6 4.8 0.00 0.91 0.00 97 1011.7
20260506225412 8 315 1.6 4.8 0.00 0.91 0.00 97 1011.6
20260506224907 8 298 1.6 6.4 0.00 0.91 0.00 97 1011.7
20260506224408 8 322 1.6 6.4 0.00 0.94 0.00 98 1011.7
20260506223908 8 257 1.6 4.8 0.00 0.94 0.00 98 1011.8
20260506223409 8 313 1.6 4.8 0.00 0.94 0.00 98 1011.7
20260506222908 8 303 1.6 4.8 0.00 0.94 0.00 98 1011.6
20260506222402 8 295 1.6 4.8 0.00 0.94 0.00 98 1011.6
20260506221856 8 289 1.6 8.0 0.00 0.97 0.00 98 1011.5
20260506221351 8 340 1.6 8.0 0.00 0.97 0.00 98 1011.4
20260506215833 8 314 3.2 11.3 0.00 0.97 0.97 98 1011.3
20260506215331 8 313 1.6 9.7 0.00 0.97 0.97 98 1011.3
20260506214832 8 340 1.6 8.0 0.00 0.97 0.97 98 1011.2
20260506214332 8 340 3.2 8.0 0.00 0.97 0.97 98 1011.2
20260506213833 8 25 3.2 9.7 0.00 0.99 0.97 98 1011.2
20260506213332 8 298 1.6 9.7 0.00 0.99 0.97 99 1011.1
20260506212832 8 315 1.6 6.4 0.00 0.99 0.97 98 1011.2
20260506212332 8 314 1.6 6.4 0.00 0.99 0.97 98 1011.3
20260506211834 8 355 3.2 9.7 0.00 0.99 0.97 98 1011.2
20260506211332 8 290 3.2 9.7 0.00 0.99 0.97 99 1011.2
20260506210832 8 19 1.6 8.0 0.00 0.99 0.97 99 1011.1
20260506210331 8 350 3.2 8.0 0.00 0.99 0.97 99 1011.1
20260506205833 8 342 3.2 8.0 0.00 0.99 0.97 99 1011.1
20260506205332 8 327 3.2 8.0 0.00 0.99 0.97 99 1011.0
20260506204834 8 325 3.2 8.0 0.00 0.99 0.97 99 1011.1
20260506203830 8 332 3.2 9.7 0.00 0.99 0.97 99 1011.1
20260506202825 8 306 3.2 12.9 0.00 0.99 0.97 99 1011.0
20260506202319 8 313 3.2 12.9 0.00 0.99 0.97 99 1011.0
20260506201814 8 297 3.2 12.9 0.00 0.99 0.97 99 1011.0
20260506201308 8 321 3.2 8.0 0.00 0.99 0.97 99 1011.0
20260506200801 8 312 3.2 6.4 0.00 0.99 0.97 99 1010.9
20260506200256 8 343 1.6 6.4 0.03 0.99 0.97 99 1010.9
20260506195749 8 317 0.0 3.2 0.03 0.99 0.97 99 1010.9
20260506195245 8 317 0.0 3.2 0.03 0.99 0.97 99 1010.8
20260506194739 8 317 0.0 3.2 0.03 0.99 0.97 99 1010.7
20260506194240 8 317 1.6 6.4 0.03 0.99 0.97 99 1010.6
20260506193727 8 317 3.2 11.3 0.03 0.99 0.97 99 1010.5
20260506193219 8 5 3.2 11.3 0.03 0.99 0.97 99 1010.5
20260506192207 8 5 4.8 16.1 0.03 0.99 0.97 99 1010.2
20260506191701 8 11 3.2 9.7 0.05 0.99 0.97 99 1010.1
20260506191156 8 328 1.6 8.0 0.05 0.99 0.97 99 1010.1
20260506190649 8 312 1.6 8.0 0.05 0.99 0.97 99 1010.1
20260506185637 8 334 1.6 4.8 0.03 0.97 0.94 99 1010.0
20260506185132 8 355 1.6 8.0 0.03 0.97 0.94 99 1010.1
20260506184626 8 336 3.2 8.0 0.03 0.97 0.94 99 1010.0
20260506183614 8 309 3.2 11.3 0.03 0.97 0.94 99 1009.9
20260506183107 8 321 1.6 11.3 0.03 0.97 0.94 99 1009.8
20260506182601 8 317 1.6 6.4 0.03 0.97 0.94 99 1009.8
20260506182055 8 310 1.6 6.4 0.00 0.94 0.94 99 1009.7
20260506181549 8 304 3.2 8.0 0.00 0.94 0.91 99 1009.7
20260506181052 8 321 1.6 8.0 0.00 0.94 0.91 99 1009.7
20260506180538 8 317 1.6 8.0 0.00 0.94 0.91 99 1009.7
20260506180031 8 5 1.6 4.8 0.00 0.94 0.91 99 1009.5
20260506175526 8 5 0.0 4.8 0.00 0.94 0.91 99 1009.5
20260506175021 8 5 1.6 4.8 0.00 0.94 0.91 99 1009.5
20260506174514 8 5 1.6 4.8 0.00 0.94 0.91 99 1009.4
20260506174008 8 5 1.6 4.8 0.00 0.94 0.91 99 1009.3
20260506173502 8 5 1.6 6.4 0.03 0.94 0.91 98 1009.3
20260506172958 8 312 1.6 6.4 0.03 0.94 0.91 98 1009.2
20260506172449 8 312 1.6 6.4 0.03 0.94 0.91 98 1009.2
20260506171437 8 5 1.6 4.8 0.03 0.94 0.91 98 1009.2
20260506170932 8 345 1.6 4.8 0.03 0.94 0.91 98 1009.2
20260506170426 8 333 3.2 8.0 0.03 0.94 0.91 98 1009.2
20260506165919 8 331 3.2 8.0 0.03 0.94 0.91 98 1009.2
20260506165414 8 346 1.6 11.3 0.03 0.94 0.91 98 1009.2
20260506164907 8 313 1.6 11.3 0.03 0.94 0.91 98 1009.3
20260506164403 8 319 4.8 11.3 0.03 0.94 0.91 98 1009.2
20260506163857 8 326 4.8 11.3 0.00 0.91 0.89 97 1009.2
20260506162845 8 329 3.2 9.7 0.00 0.91 0.89 98 1009.0
20260506162339 8 342 3.2 9.7 0.00 0.91 0.89 98 1009.0
20260506161833 8 325 3.2 12.9 0.00 0.91 0.89 98 1009.0
20260506161327 8 337 3.2 12.9 0.00 0.91 0.89 98 1009.0
20260506160821 8 310 3.2 9.7 0.00 0.91 0.89 98 1008.9
20260506160315 8 330 3.2 9.7 0.00 0.91 0.89 97 1008.9
20260506155816 8 334 3.2 8.0 0.00 0.91 0.89 97 1008.8
20260506155306 8 315 3.2 11.3 0.00 0.91 0.89 97 1008.8
20260506154757 9 0 4.8 12.9 0.00 0.91 0.89 97 1008.9
20260506154251 9 306 4.8 16.1 0.00 0.91 0.89 97 1008.8
20260506153744 9 14 6.4 16.1 0.00 0.91 0.89 97 1008.8
20260506152227 8 5 3.2 12.9 0.00 0.91 0.89 97 1008.9
20260506151217 8 355 4.8 12.9 0.00 0.91 0.89 97 1008.9
20260506150717 8 288 3.2 12.9 0.00 0.91 0.89 97 1008.8
20260506150217 8 309 4.8 14.5 0.00 0.91 0.89 97 1008.8
20260506145717 8 313 4.8 14.5 0.00 0.91 0.89 97 1008.7
20260506144717 9 290 4.8 12.9 0.00 0.91 0.89 96 1008.5
20260506143718 9 355 3.2 9.7 0.03 0.91 0.89 97 1008.6
20260506143217 9 25 4.8 14.5 0.03 0.91 0.89 97 1008.5
20260506142720 9 297 4.8 14.5 0.03 0.91 0.89 97 1008.5
20260506142217 9 320 4.8 11.3 0.03 0.91 0.89 97 1008.5
20260506141717 9 297 3.2 9.7 0.03 0.91 0.89 97 1008.5
20260506141217 9 348 3.2 9.7 0.03 0.91 0.89 97 1008.5
20260506140718 9 350 4.8 9.7 0.03 0.91 0.89 97 1008.5
20260506135713 9 355 4.8 12.9 0.03 0.91 0.89 97 1008.5
20260506135214 8 330 4.8 12.9 0.03 0.91 0.89 97 1008.5
20260506134213 8 275 4.8 14.5 0.00 0.89 0.89 97 1008.6
20260506133713 8 319 4.8 14.5 0.00 0.89 0.89 97 1008.5
20260506133213 8 327 3.2 12.9 0.00 0.89 0.89 97 1008.5
20260506132714 8 311 3.2 6.4 0.00 0.89 0.89 97 1008.5
20260506132213 8 304 3.2 8.0 0.00 0.89 0.89 97 1008.5
20260506131713 8 304 3.2 9.7 0.00 0.89 0.89 97 1008.4
20260506131215 8 5 4.8 14.5 0.00 0.89 0.89 97 1008.4
20260506130714 8 327 4.8 14.5 0.00 0.89 0.89 97 1008.3
20260506130213 8 355 3.2 12.9 0.00 0.89 0.89 97 1008.2
20260506125713 8 316 4.8 12.9 0.00 0.89 0.89 98 1008.3
20260506125213 8 343 4.8 12.9 0.00 0.89 0.89 97 1008.3
20260506124715 8 316 4.8 11.3 0.00 0.89 0.89 98 1008.2
20260506124213 8 325 4.8 11.3 0.00 0.91 0.89 98 1008.2
20260506123711 8 355 4.8 11.3 0.00 0.91 0.89 98 1008.1
20260506123211 8 22 3.2 11.3 0.00 0.91 0.89 98 1008.1
20260506122159 8 344 4.8 11.3 0.00 0.91 0.89 98 1008.0
20260506121147 8 312 4.8 17.7 0.00 0.91 0.89 98 1008.0
20260506120641 9 313 4.8 14.5 0.00 0.91 0.89 97 1007.9
20260506115629 9 280 4.8 16.1 0.03 0.91 0.89 98 1007.8
20260506115123 9 319 6.4 14.5 0.03 0.91 0.89 98 1007.7
20260506114617 9 296 6.4 17.7 0.03 0.91 0.89 98 1007.6
20260506114112 9 317 6.4 17.7 0.03 0.91 0.89 98 1007.8
20260506113605 9 312 6.4 14.5 0.03 0.91 0.89 98 1007.7
20260506113101 9 350 4.8 14.5 0.05 0.91 0.89 98 1007.7
20260506112553 9 355 4.8 12.9 0.05 0.91 0.89 99 1007.6
20260506112047 9 310 3.2 12.9 0.05 0.91 0.89 99 1007.5
20260506111541 9 344 3.2 12.9 0.05 0.91 0.89 99 1007.5
20260506111035 9 348 4.8 12.9 0.05 0.91 0.89 99 1007.7
20260506110542 9 250 4.8 11.3 0.05 0.91 0.89 98 1007.5
20260506110023 9 347 4.8 11.3 0.05 0.89 0.86 99 1007.5
20260506105518 9 344 4.8 12.9 0.05 0.89 0.86 99 1007.5
20260506105011 9 322 4.8 12.9 0.08 0.89 0.86 99 1007.5
20260506103959 9 310 3.2 12.9 0.08 0.89 0.86 99 1007.5
20260506103453 9 312 4.8 12.9 0.08 0.89 0.86 99 1007.5
20260506102947 9 288 4.8 14.5 0.08 0.89 0.84 99 1007.5
20260506102441 9 304 4.8 12.9 0.08 0.89 0.84 99 1007.4
20260506101935 9 328 4.8 12.9 0.10 0.89 0.84 99 1007.3
20260506101429 9 355 4.8 12.9 0.08 0.86 0.81 99 1007.3
20260506100417 9 5 3.2 17.7 0.05 0.84 0.79 99 1007.2
20260506095406 9 315 4.8 14.5 0.08 0.84 0.79 99 1007.1
20260506094900 9 319 3.2 12.9 0.05 0.81 0.79 99 1007.2
20260506094353 9 317 3.2 12.9 0.05 0.81 0.79 99 1007.1
20260506093341 9 338 3.2 12.9 0.05 0.79 0.76 99 1007.1
20260506092329 9 292 4.8 12.9 0.05 0.79 0.76 99 1006.9
20260506091826 9 337 4.8 12.9 0.05 0.79 0.74 99 1007.0
20260506091317 9 284 3.2 8.0 0.05 0.79 0.74 100 1006.9
20260506090810 9 288 3.2 8.0 0.05 0.79 0.74 100 1006.9
20260506085800 9 263 3.2 12.9 0.03 0.76 0.71 99 1006.7
20260506085253 9 351 3.2 12.9 0.03 0.76 0.71 99 1006.7
20260506084748 9 302 3.2 8.0 0.05 0.76 0.71 99 1006.7
20260506084243 9 320 3.2 8.0 0.05 0.76 0.71 100 1006.7
20260506083736 9 294 3.2 14.5 0.03 0.74 0.71 100 1006.6
20260506083230 9 316 4.8 17.7 0.03 0.74 0.71 100 1006.6
20260506082724 9 307 4.8 17.7 0.03 0.74 0.71 100 1006.4
20260506082219 9 355 3.2 9.7 0.03 0.74 0.71 100 1006.4
20260506081713 9 297 3.2 9.7 0.05 0.74 0.71 100 1006.4
20260506080701 9 338 4.8 11.3 0.05 0.74 0.71 100 1006.4
20260506080154 9 316 3.2 11.3 0.05 0.74 0.71 100 1006.3
20260506072613 9 321 4.8 12.9 0.05 0.71 0.69 100 1006.2
20260506072106 9 345 6.4 17.7 0.05 0.71 0.69 100 1006.2
20260506071607 9 11 6.4 19.3 0.05 0.71 0.66 100 1006.2
20260506070606 9 346 6.4 16.1 0.05 0.71 0.66 100 1006.2
20260506070110 9 12 4.8 16.1 0.05 0.71 0.66 100 1006.2
20260506062106 9 308 3.2 12.9 0.05 0.66 0.61 100 1005.9
20260506061104 9 40 4.8 12.9 0.05 0.66 0.61 100 1005.9
20260506060606 9 312 4.8 12.9 0.05 0.66 0.61 100 1005.8